UAE57X EDDH-OMDB

Flight info

Callsign UAE57X
Flight time N/A
Altitude 35000
Route RAMAR6G/33 RAMAR Z998 RATMO DCT HDO DCT ODLIV DCT MAVOR DCT TEGRI DCT ADORU UN739 TUMER UT38 VESAR L620 BALMA UR655 LEBOR R655 KTN R785 RASLI P559 TRF R23 NEVOL N318 TAMRO T503 KSA M321 RESAL T533 RAPMA DCT KUVSO DCT KATIT DCT PEKEM M628 RIGIL G783 ASPED Q308 KIPOK Q568 IMPED
Aircraft B77W/H-SDE1E2E3FGHIJ2J3J4J5M1RWXY/LB1D1

Departure

Time N/A
Airport Hamburg Helmut Schmidt Airport (EDDH)

Arrival

Time 2026-04-30 13:39
Airport Dubai International Airport (OMDB)
Time Latitude Longitude Altitude Speed Heading
2026-04-30 09:31 40.28998 28.03437 35075 ft 501 kts 149°
2026-04-30 09:31 40.26153 28.06023 35071 ft 501 kts 149°
2026-04-30 09:32 40.20447 28.11202 35061 ft 502 kts 149°
2026-04-30 09:32 40.14691 28.16415 35064 ft 502 kts 149°
2026-04-30 09:33 40.08918 28.21634 35057 ft 502 kts 149°
2026-04-30 09:33 40.03213 28.26781 35052 ft 501 kts 150°
2026-04-30 09:34 39.97471 28.31950 35048 ft 501 kts 149°
2026-04-30 09:34 39.91755 28.37084 35056 ft 501 kts 149°
2026-04-30 09:35 39.86025 28.42221 35058 ft 500 kts 149°
2026-04-30 09:35 39.80286 28.47355 35069 ft 500 kts 149°
2026-04-30 09:36 39.74579 28.52450 35073 ft 500 kts 149°
2026-04-30 09:36 39.68817 28.57582 35079 ft 501 kts 149°
2026-04-30 09:37 39.63102 28.62664 35084 ft 499 kts 149°
2026-04-30 09:37 39.57381 28.67741 35074 ft 499 kts 150°
2026-04-30 09:38 39.51671 28.72797 35081 ft 500 kts 150°
2026-04-30 09:38 39.45912 28.77885 35079 ft 500 kts 150°
2026-04-30 09:39 39.40184 28.82936 35088 ft 500 kts 150°
2026-04-30 09:39 39.34453 28.87980 35101 ft 500 kts 150°
2026-04-30 09:40 39.28715 28.93020 35100 ft 499 kts 150°
2026-04-30 09:40 39.22984 28.98044 35103 ft 499 kts 150°
2026-04-30 09:41 39.17226 29.03082 35105 ft 498 kts 150°
2026-04-30 09:41 39.11485 29.08093 35104 ft 498 kts 150°
2026-04-30 09:42 39.05771 29.13072 35100 ft 499 kts 150°
2026-04-30 09:42 39.00017 29.18075 35099 ft 500 kts 149°
2026-04-30 09:43 38.94294 29.23041 35093 ft 499 kts 149°
2026-04-30 09:43 38.88525 29.28038 35096 ft 498 kts 150°
2026-04-30 09:44 38.82803 29.32984 35093 ft 498 kts 150°
2026-04-30 09:44 38.77060 29.37938 35097 ft 499 kts 150°
2026-04-30 09:45 38.71265 29.42928 35100 ft 499 kts 149°
2026-04-30 09:45 38.65821 29.48460 35082 ft 505 kts 136°
2026-04-30 09:46 38.61523 29.55568 35099 ft 507 kts 128°
2026-04-30 09:46 38.57457 29.62845 35106 ft 506 kts 128°
2026-04-30 09:47 38.53330 29.70163 35106 ft 505 kts 129°
2026-04-30 09:47 38.49230 29.77389 35109 ft 504 kts 129°
2026-04-30 09:48 38.45107 29.84620 35109 ft 506 kts 129°
2026-04-30 09:48 38.40973 29.91848 35102 ft 505 kts 129°
2026-04-30 09:49 38.36835 29.99060 35101 ft 504 kts 129°
2026-04-30 09:49 38.32703 30.06244 35102 ft 504 kts 129°
2026-04-30 09:50 38.28574 30.13405 35110 ft 503 kts 129°
2026-04-30 09:50 38.24434 30.20584 35108 ft 504 kts 129°
2026-04-30 09:51 38.20276 30.27771 35117 ft 503 kts 129°
2026-04-30 09:51 38.16127 30.34926 35117 ft 504 kts 129°
2026-04-30 09:52 38.11984 30.42055 35132 ft 503 kts 129°
2026-04-30 09:52 38.07911 30.49047 35135 ft 503 kts 129°
2026-04-30 09:53 38.03739 30.56194 35144 ft 502 kts 129°
2026-04-30 09:53 37.99601 30.63268 35144 ft 502 kts 129°
2026-04-30 09:54 37.95464 30.70336 35141 ft 501 kts 129°
2026-04-30 09:54 37.91321 30.77414 35144 ft 501 kts 129°
2026-04-30 09:55 37.87156 30.84512 35147 ft 501 kts 129°
2026-04-30 09:55 37.82985 30.91607 35140 ft 502 kts 129°
2026-04-30 09:56 37.78857 30.98613 35141 ft 501 kts 129°
2026-04-30 09:56 37.74712 31.05632 35129 ft 500 kts 129°
2026-04-30 09:57 37.70558 31.12652 35142 ft 500 kts 129°
2026-04-30 09:57 37.66399 31.19664 35141 ft 500 kts 129°
2026-04-30 09:58 37.62242 31.26660 35148 ft 500 kts 129°
2026-04-30 09:58 37.58052 31.33695 35148 ft 500 kts 129°
2026-04-30 09:59 37.49722 31.47637 35146 ft 500 kts 129°
2026-04-30 10:00 37.43443 31.58109 35147 ft 498 kts 129°
2026-04-30 10:01 37.37202 31.68484 35173 ft 499 kts 129°
2026-04-30 10:02 37.30936 31.78852 35169 ft 499 kts 129°
2026-04-30 10:02 37.26718 31.85810 35176 ft 499 kts 129°
2026-04-30 10:03 37.22514 31.92732 35189 ft 498 kts 129°
2026-04-30 10:03 37.18323 31.99618 35199 ft 497 kts 129°
2026-04-30 10:04 37.14142 32.06473 35186 ft 496 kts 129°
2026-04-30 10:04 37.09951 32.13330 35210 ft 497 kts 129°
2026-04-30 10:05 37.05767 32.20163 35195 ft 497 kts 129°
2026-04-30 10:05 37.01545 32.27042 35196 ft 497 kts 129°
2026-04-30 10:06 36.97345 32.33874 35191 ft 497 kts 129°
2026-04-30 10:06 36.93131 32.40713 35184 ft 496 kts 129°
2026-04-30 10:07 36.88929 32.47519 35173 ft 496 kts 129°
2026-04-30 10:07 36.84736 32.54302 35165 ft 497 kts 129°
2026-04-30 10:08 36.80516 32.61116 35167 ft 497 kts 129°
2026-04-30 10:08 36.76274 32.67954 35142 ft 497 kts 129°
2026-04-30 10:09 36.72077 32.74705 35138 ft 496 kts 129°
2026-04-30 10:09 36.67838 32.81509 35132 ft 496 kts 129°
2026-04-30 10:10 36.63630 32.88250 35131 ft 495 kts 130°
2026-04-30 10:10 36.59391 32.95027 35139 ft 496 kts 130°
2026-04-30 10:11 36.55152 33.01791 35125 ft 496 kts 129°
2026-04-30 10:11 36.50933 33.08509 35110 ft 496 kts 129°
2026-04-30 10:12 36.46681 33.15266 35108 ft 497 kts 129°
2026-04-30 10:12 36.42410 33.22040 35093 ft 495 kts 130°
2026-04-30 10:13 36.38179 33.28737 35078 ft 496 kts 130°
2026-04-30 10:13 36.33938 33.35426 35074 ft 495 kts 130°
2026-04-30 10:14 36.29669 33.42144 35066 ft 496 kts 129°
2026-04-30 10:14 36.23268 33.52191 35084 ft 496 kts 129°
2026-04-30 10:15 36.19006 33.58865 35070 ft 496 kts 130°
2026-04-30 10:15 36.14729 33.65550 35047 ft 495 kts 130°
2026-04-30 10:16 36.10452 33.72222 35025 ft 495 kts 130°
2026-04-30 10:17 36.04034 33.82208 35027 ft 494 kts 130°
2026-04-30 10:17 35.97641 33.92128 35036 ft 494 kts 130°
2026-04-30 10:18 35.93350 33.98694 35040 ft 494 kts 134°
2026-04-30 10:19 35.85123 34.06242 35030 ft 491 kts 151°
2026-04-30 10:19 35.79322 34.10571 35028 ft 490 kts 151°
2026-04-30 10:20 35.73477 34.14905 35026 ft 490 kts 151°
2026-04-30 10:20 35.64709 34.21350 35030 ft 491 kts 152°
2026-04-30 10:21 35.58803 34.25657 35035 ft 491 kts 152°
2026-04-30 10:21 35.52965 34.29906 35028 ft 490 kts 152°
2026-04-30 10:22 35.47098 34.34170 35030 ft 491 kts 152°
2026-04-30 10:22 35.41225 34.38430 35035 ft 491 kts 152°
2026-04-30 10:23 35.35331 34.42697 35040 ft 492 kts 152°
2026-04-30 10:23 35.29445 34.46952 35030 ft 492 kts 152°
2026-04-30 10:24 35.23551 34.51205 35028 ft 491 kts 152°
2026-04-30 10:24 35.17698 34.55421 35043 ft 491 kts 152°
2026-04-30 10:25 35.11786 34.59672 35024 ft 491 kts 152°
2026-04-30 10:25 35.05901 34.63897 35025 ft 492 kts 152°
2026-04-30 10:26 34.99989 34.68138 35030 ft 493 kts 152°
2026-04-30 10:26 34.94123 34.72346 35026 ft 493 kts 152°
2026-04-30 10:27 34.88172 34.76606 35034 ft 494 kts 152°
2026-04-30 10:27 34.82262 34.80830 35029 ft 493 kts 152°
2026-04-30 10:28 34.76326 34.85066 35032 ft 494 kts 153°
2026-04-30 10:28 34.70420 34.89274 35031 ft 493 kts 153°
2026-04-30 10:29 34.64512 34.93475 35031 ft 493 kts 153°
2026-04-30 10:29 34.58606 34.97667 35032 ft 494 kts 153°
2026-04-30 10:30 34.52763 35.02121 35005 ft 497 kts 144°
2026-04-30 10:30 34.47983 35.08212 35005 ft 503 kts 127°
2026-04-30 10:31 34.44827 35.15776 35006 ft 506 kts 110°
2026-04-30 10:31 34.42729 35.23843 35027 ft 507 kts 109°
2026-04-30 10:32 34.40574 35.31964 35025 ft 505 kts 109°
2026-04-30 10:32 34.38376 35.40040 35033 ft 507 kts 110°
2026-04-30 10:33 34.36149 35.48098 35030 ft 506 kts 110°
2026-04-30 10:33 34.33904 35.56140 35032 ft 505 kts 110°
2026-04-30 10:34 34.31644 35.64182 35043 ft 506 kts 110°
2026-04-30 10:34 34.29919 35.72414 35023 ft 507 kts 97°
2026-04-30 10:35 34.29486 35.80920 35076 ft 509 kts 94°
2026-04-30 10:35 34.29126 35.89431 35113 ft 508 kts 94°
2026-04-30 10:36 34.28760 35.97704 35135 ft 508 kts 94°
2026-04-30 10:36 34.28428 36.06184 35165 ft 508 kts 93°
2026-04-30 10:37 34.28144 36.14573 35173 ft 508 kts 93°
2026-04-30 10:37 34.27848 36.23026 35170 ft 507 kts 93°
2026-04-30 10:38 34.27542 36.31502 35174 ft 507 kts 93°
2026-04-30 10:38 34.27231 36.39932 35164 ft 507 kts 94°
2026-04-30 10:39 34.26914 36.48321 35158 ft 507 kts 93°
2026-04-30 10:39 34.26587 36.56806 35160 ft 507 kts 94°
2026-04-30 10:40 34.26076 36.65217 35157 ft 507 kts 97°
2026-04-30 10:40 34.25418 36.73643 35134 ft 507 kts 97°
2026-04-30 10:41 34.24763 36.82095 35133 ft 507 kts 97°
2026-04-30 10:41 34.24107 36.90575 35116 ft 507 kts 97°
2026-04-30 10:42 34.23450 36.99033 35113 ft 507 kts 97°
2026-04-30 10:42 34.22786 37.07537 35114 ft 506 kts 97°
2026-04-30 10:43 34.21644 37.15826 35137 ft 505 kts 110°
2026-04-30 10:43 34.18536 37.23340 35135 ft 501 kts 129°
2026-04-30 10:44 34.13662 37.29279 35138 ft 495 kts 147°
2026-04-30 10:44 34.07837 37.33591 35116 ft 492 kts 153°
2026-04-30 10:45 34.01850 37.37557 35114 ft 492 kts 155°
2026-04-30 10:45 33.95777 37.41384 35116 ft 492 kts 156°
2026-04-30 10:46 33.89691 37.45115 35116 ft 491 kts 156°
2026-04-30 10:46 33.83575 37.48804 35100 ft 491 kts 157°
2026-04-30 10:47 33.77429 37.52478 35095 ft 492 kts 157°
2026-04-30 10:47 33.71297 37.56122 35094 ft 494 kts 157°
2026-04-30 10:48 33.65165 37.59753 35089 ft 493 kts 158°
2026-04-30 10:48 33.59000 37.63393 35086 ft 494 kts 158°
2026-04-30 10:49 33.52812 37.67014 35076 ft 493 kts 159°
2026-04-30 10:49 33.46679 37.70540 35067 ft 492 kts 159°
2026-04-30 10:50 33.40467 37.74099 35072 ft 493 kts 159°
2026-04-30 10:50 33.34320 37.77599 35060 ft 494 kts 159°
2026-04-30 10:51 33.28086 37.81143 35052 ft 494 kts 159°
2026-04-30 10:51 33.21858 37.84680 35052 ft 496 kts 159°
2026-04-30 10:52 33.15662 37.88194 35044 ft 495 kts 159°
2026-04-30 10:52 33.09434 37.91721 35043 ft 495 kts 159°
2026-04-30 10:53 33.03203 37.95244 35052 ft 496 kts 160°
2026-04-30 10:53 32.97011 37.98741 35045 ft 494 kts 160°
2026-04-30 10:54 32.90777 38.02339 35054 ft 497 kts 158°
2026-04-30 10:54 32.84580 38.06029 35067 ft 498 kts 159°
2026-04-30 10:55 32.78408 38.09708 35062 ft 498 kts 159°
2026-04-30 10:55 32.72176 38.13415 35067 ft 498 kts 159°
2026-04-30 10:56 32.66009 38.17074 35066 ft 497 kts 159°
2026-04-30 10:56 32.59831 38.20732 35064 ft 498 kts 159°
2026-04-30 10:57 32.53618 38.24405 35070 ft 499 kts 159°
2026-04-30 10:57 32.47419 38.28063 35066 ft 497 kts 159°
2026-04-30 10:58 32.41217 38.31716 35071 ft 499 kts 159°
2026-04-30 10:58 32.34961 38.35397 35074 ft 499 kts 159°
2026-04-30 10:59 32.28792 38.39020 35072 ft 497 kts 159°
2026-04-30 10:59 32.22550 38.42679 35066 ft 500 kts 159°
2026-04-30 11:00 32.16333 38.46319 35082 ft 499 kts 160°
2026-04-30 11:00 32.10074 38.49977 35066 ft 501 kts 160°
2026-04-30 11:01 32.03825 38.53625 35085 ft 501 kts 160°
2026-04-30 11:01 31.97603 38.57251 35086 ft 501 kts 160°
2026-04-30 11:02 31.91350 38.60890 35083 ft 500 kts 160°
2026-04-30 11:02 31.85093 38.64529 35097 ft 501 kts 160°
2026-04-30 11:03 31.78835 38.68165 35083 ft 499 kts 160°
2026-04-30 11:04 31.69533 38.73600 35078 ft 502 kts 157°
2026-04-30 11:04 31.63505 38.77872 35090 ft 505 kts 155°
2026-04-30 11:05 31.57524 38.82180 35086 ft 505 kts 155°
2026-04-30 11:05 31.51546 38.86475 35083 ft 505 kts 155°
2026-04-30 11:06 31.45528 38.90787 35084 ft 505 kts 155°
2026-04-30 11:06 31.39546 38.95067 35082 ft 503 kts 155°
2026-04-30 11:07 31.33557 38.99343 35084 ft 505 kts 155°
2026-04-30 11:07 31.27577 39.03606 35087 ft 503 kts 155°
2026-04-30 11:08 31.21566 39.07884 35082 ft 504 kts 156°
2026-04-30 11:08 31.15559 39.12153 35091 ft 503 kts 156°
2026-04-30 11:09 31.09601 39.16380 35095 ft 505 kts 156°
2026-04-30 11:09 31.03608 39.20627 35100 ft 505 kts 156°
2026-04-30 11:10 30.97620 39.24864 35098 ft 504 kts 156°
2026-04-30 11:10 30.91627 39.29097 35103 ft 503 kts 156°
2026-04-30 11:11 30.85614 39.33340 35099 ft 503 kts 156°
2026-04-30 11:11 30.79644 39.37545 35105 ft 503 kts 156°
2026-04-30 11:12 30.73639 39.41768 35094 ft 504 kts 156°
2026-04-30 11:12 30.67652 39.45974 35084 ft 503 kts 156°
2026-04-30 11:13 30.61629 39.50198 35076 ft 504 kts 156°
2026-04-30 11:13 30.55631 39.54398 35087 ft 505 kts 156°
2026-04-30 11:14 30.49649 39.58581 35086 ft 503 kts 156°
2026-04-30 11:14 30.43674 39.62854 35072 ft 510 kts 151°
2026-04-30 11:15 30.38525 39.68542 35035 ft 524 kts 135°
2026-04-30 11:15 30.34149 39.75351 35059 ft 527 kts 133°
2026-04-30 11:16 30.29819 39.82143 35065 ft 526 kts 133°
2026-04-30 11:16 30.25456 39.88946 35064 ft 528 kts 133°
2026-04-30 11:17 30.21102 39.95710 35054 ft 527 kts 133°
2026-04-30 11:17 30.16722 40.02491 35050 ft 526 kts 133°
2026-04-30 11:18 30.12327 40.09279 35064 ft 528 kts 133°
2026-04-30 11:18 30.05727 40.19449 35042 ft 526 kts 133°
2026-04-30 11:19 30.01348 40.26178 35037 ft 529 kts 133°
2026-04-30 11:19 29.96934 40.32954 35038 ft 528 kts 133°
2026-04-30 11:20 29.92513 40.39732 35044 ft 529 kts 133°
2026-04-30 11:20 29.88101 40.46485 35054 ft 527 kts 133°
2026-04-30 11:21 29.83683 40.53232 35056 ft 531 kts 133°
2026-04-30 11:21 29.79267 40.59967 35058 ft 530 kts 134°
2026-04-30 11:22 29.75017 40.66950 35038 ft 534 kts 128°
2026-04-30 11:22 29.71128 40.74192 35044 ft 537 kts 128°
2026-04-30 11:23 29.67233 40.81440 35050 ft 536 kts 128°
2026-04-30 11:24 29.61361 40.92327 35043 ft 536 kts 128°
2026-04-30 11:24 29.57420 40.99612 35033 ft 535 kts 128°
2026-04-30 11:25 29.51526 41.10480 35036 ft 536 kts 128°
2026-04-30 11:26 29.43640 41.24974 35045 ft 535 kts 128°
2026-04-30 11:26 29.39684 41.32224 35048 ft 536 kts 128°
2026-04-30 11:27 29.35721 41.39476 35045 ft 536 kts 128°
2026-04-30 11:27 29.31779 41.46680 35293 ft 536 kts 128°
2026-04-30 11:28 29.27813 41.53918 35065 ft 533 kts 128°
2026-04-30 11:28 29.25839 41.57513 35053 ft 534 kts 129°
2026-04-30 11:29 29.21880 41.64717 35060 ft 534 kts 129°
2026-04-30 11:29 29.15922 41.75530 35038 ft 536 kts 129°
2026-04-30 11:30 29.09956 41.86334 35041 ft 537 kts 129°
2026-04-30 11:31 29.05954 41.93567 35135 ft 535 kts 129°
2026-04-30 11:31 29.03972 41.97143 35331 ft 536 kts 129°
2026-04-30 11:31 29.01981 42.00729 35548 ft 537 kts 130°
2026-04-30 11:31 28.99978 42.04333 35770 ft 539 kts 129°
2026-04-30 11:32 28.97977 42.07932 35986 ft 539 kts 129°
2026-04-30 11:32 28.95953 42.11570 36205 ft 539 kts 130°
2026-04-30 11:32 28.93951 42.15166 36258 ft 540 kts 129°
2026-04-30 11:33 28.89929 42.22380 36749 ft 540 kts 130°
2026-04-30 11:33 28.87913 42.25991 36992 ft 541 kts 130°
2026-04-30 11:33 28.83859 42.33242 37050 ft 543 kts 130°
2026-04-30 11:34 28.79782 42.40521 37053 ft 545 kts 130°
2026-04-30 11:34 28.75720 42.47764 37052 ft 545 kts 130°
2026-04-30 11:35 28.71650 42.55007 37049 ft 543 kts 130°
2026-04-30 11:35 28.67595 42.62211 37057 ft 543 kts 130°
2026-04-30 11:36 28.63283 42.69176 37055 ft 532 kts 140°
2026-04-30 11:36 28.58294 42.75394 37035 ft 529 kts 142°
2026-04-30 11:37 28.53302 42.81531 37039 ft 528 kts 142°
2026-04-30 11:37 28.48279 42.87689 37042 ft 530 kts 142°
2026-04-30 11:38 28.43279 42.93812 37044 ft 531 kts 142°
2026-04-30 11:38 28.38250 42.99961 37044 ft 529 kts 142°
2026-04-30 11:39 28.33213 43.06107 37038 ft 530 kts 142°
2026-04-30 11:39 28.28202 43.12213 37043 ft 531 kts 142°
2026-04-30 11:40 28.23181 43.18325 37040 ft 527 kts 142°
2026-04-30 11:40 28.18160 43.24424 37024 ft 528 kts 142°
2026-04-30 11:41 28.13139 43.30513 37044 ft 529 kts 142°
2026-04-30 11:41 28.08091 43.36629 37041 ft 529 kts 142°
2026-04-30 11:42 28.03072 43.42701 37048 ft 529 kts 142°
2026-04-30 11:42 27.98050 43.48764 36983 ft 529 kts 142°
2026-04-30 11:43 27.92982 43.54877 37061 ft 529 kts 142°
2026-04-30 11:43 27.87972 43.60909 37064 ft 532 kts 142°
2026-04-30 11:44 27.82884 43.66974 37065 ft 526 kts 146°
2026-04-30 11:44 27.77600 43.72702 37033 ft 526 kts 146°
2026-04-30 11:45 27.72329 43.78395 36971 ft 529 kts 146°
2026-04-30 11:45 27.69675 43.81266 37093 ft 526 kts 146°
2026-04-30 11:45 27.67059 43.84095 37040 ft 528 kts 146°
2026-04-30 11:46 27.61752 43.89839 37035 ft 531 kts 146°
2026-04-30 11:46 27.56439 43.95589 37034 ft 528 kts 146°
2026-04-30 11:47 27.51274 44.01172 37033 ft 530 kts 146°
2026-04-30 11:47 27.45952 44.06920 37025 ft 528 kts 146°
2026-04-30 11:48 27.40604 44.12686 37027 ft 532 kts 146°
2026-04-30 11:48 27.35299 44.18404 37026 ft 528 kts 146°
2026-04-30 11:49 27.29993 44.24110 37029 ft 531 kts 146°
2026-04-30 11:49 27.24648 44.29853 37029 ft 531 kts 146°
2026-04-30 11:50 27.19330 44.35558 37023 ft 530 kts 146°
2026-04-30 11:50 27.13994 44.41276 37022 ft 533 kts 146°
2026-04-30 11:51 27.08661 44.46997 37025 ft 531 kts 146°
2026-04-30 11:51 27.03294 44.52743 37022 ft 532 kts 146°
2026-04-30 11:52 26.97955 44.58451 37024 ft 533 kts 146°
2026-04-30 11:52 26.92623 44.64135 37022 ft 530 kts 146°
2026-04-30 11:53 26.87274 44.69830 37008 ft 531 kts 147°
2026-04-30 11:53 26.81924 44.75515 37010 ft 535 kts 146°
2026-04-30 11:54 26.76550 44.81223 37010 ft 530 kts 147°
2026-04-30 11:54 26.71202 44.86883 37022 ft 530 kts 147°
2026-04-30 11:55 26.65848 44.92539 37024 ft 531 kts 146°
2026-04-30 11:55 26.60454 44.98231 37032 ft 532 kts 146°
2026-04-30 11:56 26.55087 45.03888 37034 ft 533 kts 146°
2026-04-30 11:56 26.49710 45.09551 37034 ft 534 kts 146°
2026-04-30 11:57 26.44312 45.15229 37035 ft 532 kts 146°
2026-04-30 11:57 26.38938 45.20874 37034 ft 531 kts 146°
2026-04-30 11:58 26.33536 45.26538 37038 ft 535 kts 146°
2026-04-30 11:58 26.28178 45.32157 37037 ft 531 kts 146°
2026-04-30 11:59 26.22778 45.37829 37036 ft 532 kts 146°
2026-04-30 11:59 26.17409 45.43462 37034 ft 533 kts 146°
2026-04-30 12:00 26.12013 45.49120 37034 ft 529 kts 146°
2026-04-30 12:00 26.06635 45.54747 37032 ft 533 kts 146°
2026-04-30 12:01 26.01251 45.60379 37032 ft 528 kts 146°
2026-04-30 12:01 25.95904 45.65959 37020 ft 530 kts 146°
2026-04-30 12:02 25.90548 45.71545 37011 ft 526 kts 146°
2026-04-30 12:02 25.85198 45.77114 37019 ft 528 kts 146°
2026-04-30 12:03 25.77220 45.85407 37026 ft 524 kts 146°
2026-04-30 12:04 25.71882 45.90944 37024 ft 523 kts 146°
2026-04-30 12:04 25.66551 45.96468 37021 ft 524 kts 146°
2026-04-30 12:05 25.61234 46.01971 37017 ft 522 kts 146°
2026-04-30 12:05 25.55940 46.07442 37017 ft 520 kts 146°
2026-04-30 12:06 25.50625 46.12928 37018 ft 521 kts 145°
2026-04-30 12:06 25.45351 46.18366 37022 ft 519 kts 145°
2026-04-30 12:07 25.40027 46.23846 37022 ft 520 kts 145°
2026-04-30 12:07 25.34775 46.29248 37029 ft 518 kts 145°
2026-04-30 12:08 25.29489 46.34675 37029 ft 520 kts 145°
2026-04-30 12:08 25.24206 46.40094 37015 ft 518 kts 144°
2026-04-30 12:09 25.18884 46.45544 37011 ft 521 kts 144°
2026-04-30 12:09 25.13622 46.50930 37011 ft 517 kts 144°
2026-04-30 12:10 25.08227 46.56443 37014 ft 516 kts 144°
2026-04-30 12:10 25.02961 46.61817 37018 ft 516 kts 144°
2026-04-30 12:11 24.97390 46.66739 37032 ft 498 kts 158°
2026-04-30 12:11 24.91130 46.70007 37004 ft 492 kts 165°
2026-04-30 12:12 24.84840 46.73012 37013 ft 490 kts 165°
2026-04-30 12:12 24.78559 46.75986 37000 ft 491 kts 165°
2026-04-30 12:13 24.72290 46.78941 37003 ft 488 kts 165°
2026-04-30 12:13 24.66033 46.81879 36990 ft 490 kts 165°
2026-04-30 12:14 24.59751 46.84825 36985 ft 488 kts 165°
2026-04-30 12:14 24.53532 46.87736 36986 ft 488 kts 165°
2026-04-30 12:15 24.47319 46.90641 36984 ft 485 kts 165°
2026-04-30 12:15 24.41098 46.93544 36985 ft 484 kts 164°
2026-04-30 12:16 24.34880 46.96443 36992 ft 485 kts 164°
2026-04-30 12:16 24.28655 46.99342 36970 ft 482 kts 164°
2026-04-30 12:17 24.19378 47.03657 36953 ft 482 kts 164°
2026-04-30 12:17 24.13384 47.07108 36937 ft 496 kts 151°
2026-04-30 12:18 24.08361 47.12392 36933 ft 511 kts 133°
2026-04-30 12:18 24.04472 47.19038 36960 ft 516 kts 127°
2026-04-30 12:19 24.00761 47.25696 36960 ft 514 kts 127°
2026-04-30 12:19 23.96993 47.32373 36958 ft 514 kts 127°
2026-04-30 12:20 23.93229 47.38992 36968 ft 513 kts 128°
2026-04-30 12:20 23.89436 47.45631 36971 ft 514 kts 128°
2026-04-30 12:21 23.85656 47.52220 36979 ft 516 kts 127°
2026-04-30 12:21 23.81848 47.58849 36975 ft 514 kts 127°
2026-04-30 12:22 23.78055 47.65434 36962 ft 516 kts 128°
2026-04-30 12:22 23.74237 47.72054 36934 ft 514 kts 128°
2026-04-30 12:23 23.70452 47.78607 36932 ft 513 kts 128°
2026-04-30 12:23 23.66640 47.85197 36925 ft 512 kts 128°
2026-04-30 12:24 23.62838 47.91759 36922 ft 511 kts 128°
2026-04-30 12:24 23.59030 47.98323 36916 ft 510 kts 127°
2026-04-30 12:25 23.55238 48.04852 36922 ft 512 kts 128°
2026-04-30 12:25 23.51445 48.11373 36921 ft 511 kts 127°
2026-04-30 12:26 23.47640 48.17906 36919 ft 513 kts 127°
2026-04-30 12:26 23.43811 48.24473 36912 ft 512 kts 127°
2026-04-30 12:27 23.40159 48.31097 36886 ft 514 kts 119°
2026-04-30 12:27 23.38010 48.38528 36881 ft 525 kts 102°
2026-04-30 12:28 23.37524 48.46482 36913 ft 528 kts 95°
2026-04-30 12:28 23.37276 48.54401 36908 ft 525 kts 95°
2026-04-30 12:29 23.36995 48.62293 36909 ft 525 kts 95°
2026-04-30 12:29 23.36688 48.70257 36898 ft 523 kts 96°
2026-04-30 12:30 23.36369 48.78150 36890 ft 523 kts 96°
2026-04-30 12:30 23.36040 48.86048 36880 ft 522 kts 96°
2026-04-30 12:31 23.35705 48.93916 36876 ft 524 kts 96°
2026-04-30 12:31 23.35363 49.01812 36859 ft 524 kts 96°
2026-04-30 12:32 23.34706 49.09690 36867 ft 523 kts 102°
2026-04-30 12:32 23.33599 49.17460 36842 ft 520 kts 102°
2026-04-30 12:33 23.32488 49.25174 36841 ft 518 kts 102°
2026-04-30 12:33 23.31372 49.32907 36833 ft 517 kts 102°
2026-04-30 12:34 23.30256 49.40614 36845 ft 519 kts 102°
2026-04-30 12:34 23.29133 49.48349 36842 ft 518 kts 102°
2026-04-30 12:35 23.28007 49.56076 36847 ft 519 kts 102°
2026-04-30 12:35 23.26873 49.63830 36850 ft 518 kts 102°
2026-04-30 12:36 23.25742 49.71542 36839 ft 518 kts 103°
2026-04-30 12:36 23.24613 49.79211 36834 ft 517 kts 103°
2026-04-30 12:37 23.23475 49.86915 36831 ft 517 kts 103°
2026-04-30 12:37 23.22329 49.94638 36835 ft 518 kts 103°
2026-04-30 12:38 23.21187 50.02320 36833 ft 517 kts 102°
2026-04-30 12:38 23.20043 50.09985 36829 ft 516 kts 102°
2026-04-30 12:39 23.18890 50.17683 36827 ft 516 kts 102°
2026-04-30 12:39 23.17740 50.25333 36834 ft 516 kts 102°
2026-04-30 12:40 23.16577 50.33044 36838 ft 517 kts 103°
2026-04-30 12:40 23.15422 50.40681 36845 ft 515 kts 103°
2026-04-30 12:41 23.14254 50.48369 36833 ft 516 kts 102°
2026-04-30 12:41 23.13086 50.56041 36836 ft 517 kts 102°
2026-04-30 12:42 23.11917 50.63688 36832 ft 516 kts 102°
2026-04-30 12:42 23.10739 50.71370 36814 ft 516 kts 103°
2026-04-30 12:43 23.09561 50.79028 36813 ft 513 kts 103°
2026-04-30 12:43 23.08385 50.86645 36804 ft 514 kts 103°
2026-04-30 12:44 23.07205 50.94269 36796 ft 513 kts 103°
2026-04-30 12:44 23.06015 51.01924 36782 ft 514 kts 103°
2026-04-30 12:45 23.04826 51.09549 36781 ft 515 kts 103°
2026-04-30 12:45 23.03627 51.17216 36787 ft 515 kts 103°
2026-04-30 12:46 23.02434 51.24818 36791 ft 514 kts 103°
2026-04-30 12:46 23.01230 51.32470 36793 ft 514 kts 103°
2026-04-30 12:47 23.00028 51.40077 36791 ft 514 kts 103°
2026-04-30 12:47 22.98826 51.47668 36789 ft 513 kts 103°
2026-04-30 12:48 22.97614 51.55296 36793 ft 512 kts 103°
2026-04-30 12:48 22.96407 51.62867 36796 ft 512 kts 103°
2026-04-30 12:49 22.95187 51.70490 36790 ft 513 kts 103°
2026-04-30 12:49 22.93978 51.78028 36786 ft 511 kts 103°
2026-04-30 12:50 22.92753 51.85637 36788 ft 511 kts 103°
2026-04-30 12:50 22.91530 51.93214 36793 ft 512 kts 103°
2026-04-30 12:51 22.90302 52.00792 36796 ft 511 kts 103°
2026-04-30 12:51 22.89072 52.08369 36797 ft 510 kts 103°
2026-04-30 12:52 22.87842 52.15917 36796 ft 510 kts 103°
2026-04-30 12:52 22.86611 52.23443 36801 ft 509 kts 103°
2026-04-30 12:53 22.85371 52.31007 36802 ft 510 kts 103°
2026-04-30 12:53 22.84136 52.38518 36803 ft 509 kts 103°
2026-04-30 12:54 22.82890 52.46066 36804 ft 510 kts 103°
2026-04-30 12:54 22.82236 52.53709 36791 ft 512 kts 94°
2026-04-30 12:55 22.82062 52.61425 36798 ft 512 kts 94°
2026-04-30 12:55 22.81878 52.69167 36794 ft 513 kts 94°
2026-04-30 12:56 22.81684 52.76858 36794 ft 512 kts 95°
2026-04-30 12:56 22.81483 52.84521 36795 ft 512 kts 95°
2026-04-30 12:57 22.81275 52.92240 36793 ft 511 kts 95°
2026-04-30 12:57 22.81063 52.99931 36792 ft 512 kts 95°
2026-04-30 12:58 22.80848 53.07578 36795 ft 512 kts 95°
2026-04-30 12:58 22.80627 53.15274 36790 ft 513 kts 95°
2026-04-30 12:59 22.80402 53.22980 36783 ft 512 kts 95°
2026-04-30 12:59 22.80173 53.30704 36783 ft 514 kts 95°
2026-04-30 13:00 22.79940 53.38422 36785 ft 513 kts 95°
2026-04-30 13:00 22.79705 53.46099 36790 ft 514 kts 95°
2026-04-30 13:01 22.79465 53.53802 36789 ft 513 kts 95°
2026-04-30 13:01 22.79221 53.61508 36785 ft 513 kts 95°
2026-04-30 13:02 22.78973 53.69251 36774 ft 513 kts 95°
2026-04-30 13:02 22.78722 53.76944 36766 ft 513 kts 95°
2026-04-30 13:03 22.78467 53.84647 36770 ft 514 kts 95°
2026-04-30 13:03 22.78210 53.92330 36776 ft 514 kts 95°
2026-04-30 13:04 22.78200 54.00060 36755 ft 517 kts 86°
2026-04-30 13:04 22.79577 54.07703 36779 ft 519 kts 79°
2026-04-30 13:05 22.81150 54.15302 36781 ft 518 kts 79°
2026-04-30 13:06 22.83496 54.26765 36783 ft 521 kts 79°
2026-04-30 13:06 22.85049 54.34410 36783 ft 519 kts 79°
2026-04-30 13:07 22.86589 54.42028 36785 ft 520 kts 79°
2026-04-30 13:07 22.88124 54.49648 36785 ft 520 kts 80°
2026-04-30 13:08 22.89658 54.57288 36787 ft 521 kts 79°
2026-04-30 13:08 22.91190 54.64941 36788 ft 521 kts 79°
2026-04-30 13:09 22.92728 54.72641 36777 ft 522 kts 80°
2026-04-30 13:09 22.94258 54.80327 36777 ft 522 kts 80°
2026-04-30 13:10 22.95780 54.87994 36771 ft 522 kts 80°
2026-04-30 13:10 22.97302 54.95678 36769 ft 522 kts 80°
2026-04-30 13:11 22.98834 55.03434 36768 ft 522 kts 80°
2026-04-30 13:11 23.00493 55.11117 36496 ft 527 kts 73°
2026-04-30 13:11 23.01834 55.14752 36174 ft 526 kts 65°
2026-04-30 13:12 23.03638 55.18196 35848 ft 524 kts 56°
2026-04-30 13:12 23.05855 55.21330 35522 ft 523 kts 47°
2026-04-30 13:12 23.08455 55.24105 35215 ft 523 kts 39°
2026-04-30 13:13 23.14545 55.28373 34548 ft 518 kts 23°
2026-04-30 13:13 23.17897 55.29787 34213 ft 518 kts 14°
2026-04-30 13:13 23.24909 55.31499 33614 ft 516 kts
2026-04-30 13:14 23.28459 55.32334 33334 ft 517 kts 10°
2026-04-30 13:14 23.31957 55.33210 33059 ft 519 kts 11°
2026-04-30 13:14 23.39028 55.35092 32501 ft 522 kts 12°
2026-04-30 13:15 23.42553 55.36070 32244 ft 522 kts 12°
2026-04-30 13:15 23.49551 55.38059 31651 ft 518 kts 12°
2026-04-30 13:15 23.53057 55.39070 31351 ft 514 kts 12°
2026-04-30 13:16 23.56494 55.40067 31056 ft 514 kts 12°
2026-04-30 13:16 23.60001 55.41090 30755 ft 516 kts 12°
2026-04-30 13:16 23.63463 55.42104 30459 ft 517 kts 12°
2026-04-30 13:17 23.70419 55.44152 29867 ft 518 kts 12°
2026-04-30 13:17 23.73931 55.45190 29570 ft 515 kts 12°
2026-04-30 13:17 23.79646 55.46883 29088 ft 511 kts 12°
2026-04-30 13:18 23.84211 55.48237 28663 ft 508 kts 12°
2026-04-30 13:18 23.91004 55.50252 28030 ft 502 kts 12°
2026-04-30 13:18 23.94397 55.51259 27688 ft 500 kts 12°
2026-04-30 13:19 23.97717 55.52383 27358 ft 500 kts 18°
2026-04-30 13:19 24.00841 55.54034 27043 ft 502 kts 28°
2026-04-30 13:19 24.03726 55.56240 26717 ft 503 kts 37°
2026-04-30 13:19 24.06395 55.58747 26375 ft 503 kts 39°
2026-04-30 13:20 24.08998 55.61273 26024 ft 500 kts 39°
2026-04-30 13:20 24.11600 55.63817 25664 ft 497 kts 40°
2026-04-30 13:20 24.14155 55.66324 25299 ft 494 kts 40°
2026-04-30 13:20 24.16710 55.68840 24927 ft 491 kts 40°
2026-04-30 13:21 24.19211 55.71307 24586 ft 487 kts 40°
2026-04-30 13:21 24.21745 55.73813 24254 ft 485 kts 40°
2026-04-30 13:21 24.24242 55.76285 23927 ft 483 kts 40°
2026-04-30 13:22 24.29195 55.81201 23234 ft 477 kts 40°
2026-04-30 13:22 24.31656 55.83646 22868 ft 473 kts 40°
2026-04-30 13:22 24.36498 55.88464 22060 ft 467 kts 40°
2026-04-30 13:23 24.38879 55.90835 21650 ft 463 kts 40°
2026-04-30 13:23 24.43633 55.95573 20843 ft 445 kts 40°
2026-04-30 13:24 24.48159 56.00087 20038 ft 429 kts 40°
2026-04-30 13:24 24.52539 56.04456 19249 ft 414 kts 39°
2026-04-30 13:25 24.56955 56.08340 18464 ft 401 kts 37°
2026-04-30 13:25 24.61394 56.12042 17646 ft 388 kts 26°
2026-04-30 13:26 24.68149 56.13457 16565 ft 355 kts 345°
2026-04-30 13:26 24.72410 56.11201 15917 ft 327 kts 321°
2026-04-30 13:27 24.75704 56.07966 15897 ft 311 kts 307°
2026-04-30 13:28 24.80675 56.03174 15907 ft 314 kts 316°
2026-04-30 13:28 24.84013 56.00093 15721 ft 314 kts 314°
2026-04-30 13:28 24.85606 55.98447 15476 ft 312 kts 312°
2026-04-30 13:29 24.88764 55.95097 14987 ft 309 kts 312°
2026-04-30 13:29 24.91902 55.91753 14504 ft 311 kts 312°
2026-04-30 13:30 24.96540 55.86772 13590 ft 308 kts 312°
2026-04-30 13:31 24.99238 55.83173 12866 ft 298 kts 303°
2026-04-30 13:31 25.02753 55.77655 11790 ft 286 kts 301°
2026-04-30 13:32 25.04856 55.74034 11076 ft 277 kts 297°
2026-04-30 13:32 25.06848 55.70410 10200 ft 275 kts 300°
2026-04-30 13:33 25.08827 55.66837 9267 ft 274 kts 298°
2026-04-30 13:33 25.10796 55.63228 8186 ft 278 kts 297°
2026-04-30 13:34 25.11762 55.61379 7597 ft 282 kts 300°
2026-04-30 13:34 25.14839 55.55804 3799 ft 208 kts 303°
2026-04-30 13:35 25.15669 55.54372 3453 ft 224 kts 304°
2026-04-30 13:35 25.17304 55.51464 2861 ft 223 kts 304°
2026-04-30 13:36 25.18755 55.48859 2323 ft 187 kts 304°
2026-04-30 13:36 25.19419 55.47659 2074 ft 184 kts 305°
2026-04-30 13:36 25.20748 55.45283 1564 ft 172 kts 305°
2026-04-30 13:37 25.21354 55.44198 1347 ft 161 kts 304°
2026-04-30 13:37 25.22453 55.42229 938 ft 146 kts 304°
2026-04-30 13:38 25.23497 55.40379 504 ft 141 kts 303°
2026-04-30 13:38 25.24019 55.39492 272 ft 134 kts 303°
2026-04-30 13:38 25.24973 55.37734 58 ft 139 kts 300°
2026-04-30 13:39 25.25683 55.36436 46 ft 54 kts 300°
2026-04-30 13:39 25.25902 55.36049 42 ft 20 kts 293°
2026-04-30 13:40 25.25938 55.35909 42 ft 17 kts 280°